Location: Tamazert
(32.6352°N, 5.2072°W)
Time: 22:35:04
(UTC+00:00)

SL-24 DEB - Pass Details

Date: 22 May 2022
Orbit: 662 x 699 km, 92.0° (Epoch: 24 June)

Event Time Altitude Azimuth Distance (km) Brightness Sun altitude
Exits shadow 04:08:30 - 185° (S) 2,419 6.7 -13.5°
Reaches altitude 10° 04:09:11 10° 186° (S) 2,151 6.4 -13.4°
Maximum altitude 04:13:52 60° 266° (W) 797 4.3 -12.6°
Drops below altitude 10° 04:18:34 10° 347° (NNW) 2,152 7.1 -11.8°
Sets 04:20:52 0° 351° (N) 3,068 8.0 -11.4°
